[[{"header":{"parameterUnit":"m.s-1","parameterCategory":2,"la1":30.2991,"la2":30.254,"lo1":-89.0895,"lo2":-89.0444,"dy":0.0017,"dx":0.0017,"nx":28,"ny":28,"refTime":"2025-06-14T09:00:00:Z","depth":"0","parameterNumber":2,"parameterNumberName":"U-component_of_CURRENTS"},"data":[0,0,0,0,0,0,0,0,0,0,0,0,0,0,0,0,0,0,0,0,0,0,0,0,0,0,0,0,0,0,0,0,0,0,0,0,0,0,0,0,0,0,0,0,0,0,0,0,0,0,0,0,0,0,0,0,0,0,0.1666,0.1666,0,0.1639,0.1639,0.1639,0.1599,0.1598,0.1597,0.1596,0.1487,0.1485,0.1483,0,0,0,0,0,0,0,0,0,0,0,0,0,0.1714,0.1713,0.1666,0.1666,0.1665,0.1639,0.1639,0.1639,0.1599,0.1598,0.1597,0.1596,0.1488,0.1486,0.1483,0,0,0,0,0,0,0,0,0,0,0,0,0,0.1692,0.1713,0.1666,0.1641,0.1639,0.1639,0.1639,0.1639,0.1599,0.1598,0.1596,0.1595,0.1489,0.1486,0.1483,0.1488,0,0,0.1473,0.1472,0,0,0,0,0,0,0,0,0.1693,0.169,0.1646,0.1643,0.164,0.162,0.1616,0.1584,0.1599,0.1615,0.1596,0.1595,0.1524,0.1518,0.1519,0.1483,0.1478,0.1473,0.1471,0.1469,0.1468,0,0,0,0,0,0,0,0.1695,0.1692,0.1657,0.1645,0.1642,0.1642,0.1637,0.161,0.1577,0.1614,0.1611,0.1606,0.1522,0.1522,0.1516,0.1476,0.1473,0.147,0.1468,0.1467,0.1472,0.1474,0,0,0,0,0,0,0.1695,0.1693,0.1658,0.1656,0.1663,0.1642,0.1637,0.1629,0.1579,0.157,0.1607,0.1604,0.1528,0.1519,0.1511,0.1529,0.1469,0.1466,0.1465,0.147,0.1473,0.1475,0,0,0,0,0,0,0.1696,0.1692,0.1659,0.1673,0.1668,0.1642,0.1634,0.1629,0.1629,0.1574,0.1564,0.1611,0.1527,0.1516,0.1496,0.1523,0.1465,0.1462,0.1468,0.1471,0.1474,0.1554,0,0,0,0,0,0,0.1698,0.1693,0.1694,0.1673,0.1668,0.1669,0.1634,0.1629,0.1627,0.1623,0.1574,0.1563,0.1525,0.1502,0.1493,0.1518,0.146,0.1465,0.1469,0.1473,0.1549,0.1559,0.1568,0,0,0,0,0,0.17,0.17,0.1694,0.169,0.1667,0.167,0.1668,0.1645,0.1629,0.1639,0.1605,0.1565,0.1521,0.15,0.149,0.1514,0.1463,0.1468,0.1472,0.1544,0.1557,0.1568,0,0,0,0,0,0,0.1721,0.1696,0.1688,0.1681,0.1682,0.1662,0.1665,0.1655,0.1639,0.163,0.1579,0.1566,0.1566,0.1534,0.1513,0.1533,0.1491,0.1493,0.1549,0.156,0.157,0.1585,0.1457,0,0,0,0,0,0.1728,0.1717,0.1706,0.1702,0.1704,0.169,0.1689,0.1678,0.1658,0.1651,0.1622,0.1595,0.1581,0.1563,0.1547,0.1545,0.1549,0.1561,0.1571,0.158,0.1588,0.1656,0.1673,0.149,0.149,0.149,0,0,0.1732,0.1718,0.1711,0.1706,0.1702,0.1714,0.1687,0.169,0.1706,0.164,0.1651,0.1627,0.1591,0.1597,0.1594,0.1567,0.163,0.1586,0.1593,0.1596,0.1662,0.168,0.1696,0.1493,0.1493,0.1492,0,0,0.1734,0.173,0.1723,0.1732,0.1731,0.1733,0.1739,0.1734,0.174,0.1748,0.1713,0.1709,0.168,0.1668,0.1655,0.1712,0.1687,0.1708,0.1757,0.1823,0.1839,0.1852,0.1861,0.1875,0.1705,0.1705,0.1706,0,0.1735,0.1734,0.1727,0.1734,0.1746,0.1746,0.1762,0.1776,0.1769,0.1782,0.1761,0.1756,0.172,0.1735,0.1751,0.1734,0.1751,0.1709,0.1837,0.185,0.1863,0.1869,0.1884,0.171,0.1709,0.1709,0.1709,0,0.1737,0.1747,0.1751,0.176,0.1779,0.1795,0.1817,0.1842,0.1849,0.1858,0.1886,0.1857,0.1849,0.1847,0.1807,0.1877,0.1852,0.1848,0.1805,0.1887,0.1887,0.1901,0.1716,0.1715,0.1713,0.1712,0,0,0.1699,0.174,0.174,0.1769,0.1797,0.1816,0.186,0.19,0.1932,0.1948,0.1988,0.1979,0.1968,0.1954,0.1921,0.1968,0.2056,0.1946,0.1947,0.1951,0.2174,0.1971,0.1966,0.2085,0.2088,0.2091,0.213,0,0.17,0.1733,0.1749,0.18,0.1833,0.1863,0.1907,0.1948,0.1977,0.2021,0.2029,0.2047,0.2009,0.2003,0.2051,0.2051,0.21,0.2043,0.2097,0.2097,0.1906,0.1978,0.1788,0.1792,0.2143,0.2146,0.2147,0,0.1695,0.1725,0.1773,0.1847,0.1861,0.1892,0.197,0.2006,0.2069,0.2089,0.212,0.2122,0.216,0.2135,0.2204,0.2173,0.2187,0.2196,0.2198,0.1991,0.1921,0.1772,0.1803,0.1689,0.2168,0.2166,0.2165,0,0.1697,0.1745,0.1792,0.1815,0.1891,0.1923,0.1961,0.2025,0.2066,0.213,0.2156,0.2208,0.2221,0.2281,0.2256,0.2258,0.2332,0.2336,0.2173,0.2157,0.1992,0.1954,0.1914,0.2429,0.2429,0.2429,0.2429,0,0.1709,0.1749,0.1798,0.1833,0.1895,0.1936,0.2002,0.2045,0.2104,0.2149,0.2184,0.2217,0.227,0.2294,0.2301,0.224,0.2368,0.2188,0.2166,0.2008,0.1973,0.186,0.1836,0.2431,0.243,0.243,0.243,0,0.1729,0.1755,0.1819,0.1887,0.1906,0.1954,0.2021,0.2065,0.2112,0.2171,0.2191,0.2246,0.2254,0.2261,0.2323,0.2253,0.2136,0.2199,0.1963,0.191,0.161,0.1596,0.153,0.1509,0.2037,0.2032,0.2028,0,0.1748,0.178,0.1853,0.1883,0.1916,0.1976,0.2015,0.2069,0.2106,0.2176,0.2202,0.2223,0.2216,0.2172,0.2049,0.1984,0.1982,0.1767,0.1731,0.1559,0.1534,0.1538,0.153,0.1555,0.1548,0.1542,0.1537,0,0.1788,0.1808,0.186,0.1912,0.1954,0.1999,0.2049,0.2077,0.213,0.2156,0.2169,0.2168,0.2061,0.1868,0.1725,0.1671,0.1601,0.1634,0.1562,0.1225,0.1131,0.1108,0.1535,0.1482,0.1488,0.1492,0.1495,0.1497,0.1806,0.1844,0.1891,0.1936,0.1973,0.1996,0.2002,0.2034,0.2056,0.2024,0.2086,0.196,0.1711,0.1457,0.139,0.1034,0.1215,0.0944,0.0967,0.1007,0.0902,0.1152,0.0998,0.1,0.1002,0.1004,0.1006,0,0.1808,0.1849,0.1903,0.1936,0.1935,0.1966,0.1996,0.1959,0.1925,0.1862,0.1817,0.1454,0.1181,0.0948,0.0514,0.0373,0.0442,0.0345,0.0353,0.0407,0.0701,0.0587,0.0208,0.0208,0.0208,0.0208,0.0208,0.0208,0.1816,0.1849,0.1871,0.1864,0.1875,0.1837,0.1826,0.177,0.1696,0.1441,0.1181,0.1062,0.0686,0.02,-0.0133,-0.0132,-0.0084,-0.0157,-0.0009,0.0187,0.0247,0.0304,0.0192,-0.0265,-0.0265,-0.0344,-0.0346,-0.0347]},{"header":{"parameterUnit":"m.s-1","parameterCategory":2,"la1":30.2991,"la2":30.254,"lo1":-89.0895,"lo2":-89.0444,"dy":0.0017,"dx":0.0017,"nx":28,"ny":28,"refTime":"2025-06-14T09:00:00:Z","depth":"0","parameterNumber":3,"parameterNumberName":"V-component_of_CURRENTS"},"data":[0,0,0,0,0,0,0,0,0,0,0,0,0,0,0,0,0,0,0,0,0,0,0,0,0,0,0,0,0,0,0,0,0,0,0,0,0,0,0,0,0,0,0,0,0,0,0,0,0,0,0,0,0,0,0,0,0,0,0.0227,0.0228,0,0.0272,0.0272,0.0273,0.0291,0.0291,0.0291,0.0291,0.0293,0.0293,0.0293,0,0,0,0,0,0,0,0,0,0,0,0,0,0.0175,0.0176,0.0227,0.0228,0.0228,0.0272,0.0272,0.0273,0.0291,0.0291,0.0291,0.0291,0.0293,0.0293,0.0293,0,0,0,0,0,0,0,0,0,0,0,0,0,0.0208,0.0176,0.0227,0.0241,0.0243,0.0272,0.0272,0.0273,0.0291,0.0291,0.0291,0.029,0.0292,0.0293,0.0293,0.0302,0,0,0.0294,0.0295,0,0,0,0,0,0,0,0,0.0206,0.021,0.0239,0.024,0.0242,0.0274,0.0255,0.028,0.0292,0.0275,0.0291,0.029,0.0282,0.0283,0.0295,0.0303,0.0303,0.0294,0.0295,0.0295,0.0295,0,0,0,0,0,0,0,0.0204,0.0208,0.0246,0.0239,0.0241,0.0251,0.0256,0.026,0.028,0.0276,0.0277,0.028,0.0283,0.0295,0.0295,0.0303,0.0294,0.0295,0.0295,0.0295,0.0305,0.0305,0,0,0,0,0,0,0.0195,0.0206,0.0245,0.0247,0.0221,0.0252,0.0257,0.0266,0.0281,0.0283,0.028,0.0281,0.0294,0.0295,0.0295,0.0298,0.0295,0.0295,0.0295,0.0305,0.0305,0.0305,0,0,0,0,0,0,0.0194,0.0198,0.0243,0.0226,0.0232,0.0253,0.0263,0.0267,0.0277,0.0284,0.0286,0.0286,0.0294,0.0294,0.0298,0.0298,0.0295,0.0296,0.0305,0.0305,0.0305,0.031,0,0,0,0,0,0,0.0192,0.0198,0.0202,0.0226,0.0233,0.0259,0.0263,0.0268,0.0279,0.028,0.029,0.029,0.0294,0.0298,0.0298,0.0299,0.0296,0.0305,0.0305,0.0305,0.0309,0.031,0.031,0,0,0,0,0,0.019,0.0196,0.0202,0.0206,0.0238,0.026,0.0265,0.0279,0.0279,0.0286,0.0291,0.0289,0.0298,0.0298,0.0299,0.03,0.0305,0.0305,0.0305,0.0309,0.031,0.031,0,0,0,0,0,0,0.0176,0.0199,0.0206,0.0218,0.0237,0.0262,0.027,0.0278,0.029,0.0289,0.0293,0.0293,0.0298,0.0297,0.0297,0.0302,0.03,0.0301,0.0303,0.0304,0.0304,0.0307,0.0296,0,0,0,0,0,0.0174,0.0184,0.0208,0.0217,0.0227,0.0248,0.0258,0.0269,0.0282,0.0288,0.0293,0.0296,0.0301,0.03,0.0306,0.0309,0.0335,0.0308,0.0309,0.0309,0.0312,0.0386,0.0395,0.0305,0.0305,0.0305,0,0,0.0169,0.0184,0.0188,0.0214,0.0231,0.0247,0.0254,0.0271,0.028,0.0285,0.0295,0.0301,0.0302,0.0308,0.0309,0.0306,0.0341,0.0309,0.0309,0.0312,0.0388,0.0397,0.0405,0.0305,0.0305,0.0305,0,0,0.0166,0.018,0.019,0.0206,0.023,0.0245,0.0248,0.0274,0.0281,0.0294,0.0297,0.0305,0.031,0.0315,0.0316,0.0322,0.0344,0.0317,0.0318,0.039,0.0399,0.0407,0.0424,0.0433,0.0313,0.0313,0.0313,0,0.0158,0.0178,0.0195,0.0211,0.0223,0.0242,0.0256,0.0268,0.0289,0.0296,0.0295,0.0321,0.0316,0.033,0.0323,0.0324,0.0355,0.0317,0.0393,0.0402,0.041,0.0426,0.0436,0.0313,0.0313,0.0313,0.0313,0,0.0169,0.0184,0.0192,0.0217,0.023,0.0247,0.0265,0.0276,0.0285,0.0299,0.032,0.0329,0.0345,0.034,0.0328,0.0371,0.0369,0.0391,0.0396,0.042,0.0434,0.0445,0.0314,0.0314,0.0313,0.0313,0,0,0.0152,0.0191,0.0194,0.0208,0.0237,0.025,0.0261,0.0282,0.03,0.0316,0.0349,0.0342,0.0357,0.0359,0.0358,0.0402,0.0463,0.0413,0.0417,0.0435,0.0595,0.0563,0.0571,0.0514,0.0517,0.0519,0.0571,0,0.0157,0.0187,0.0203,0.0225,0.0242,0.0259,0.0272,0.029,0.0311,0.0349,0.0363,0.0396,0.0362,0.0382,0.0418,0.0474,0.0498,0.0445,0.0564,0.0566,0.0542,0.0586,0.0598,0.0645,0.0582,0.0584,0.0585,0,0.0164,0.0185,0.0209,0.0238,0.0247,0.0259,0.0291,0.0308,0.0352,0.0372,0.0405,0.0433,0.0478,0.0465,0.0556,0.0531,0.0549,0.0581,0.0586,0.0566,0.0557,0.0617,0.0668,0.0702,0.0602,0.0601,0.06,0,0.0154,0.0185,0.0205,0.0217,0.0253,0.0261,0.0278,0.0313,0.0344,0.0401,0.045,0.0498,0.0556,0.0605,0.0636,0.0619,0.0748,0.0742,0.0715,0.0711,0.0748,0.0744,0.0855,0.0801,0.0801,0.08,0.08,0,0.0159,0.0174,0.0202,0.0219,0.0243,0.026,0.0299,0.032,0.038,0.0438,0.0467,0.054,0.0606,0.0675,0.0681,0.0733,0.0785,0.0723,0.074,0.0743,0.0738,0.0789,0.0803,0.0802,0.0802,0.0802,0.0801,0,0.0158,0.0176,0.0201,0.0235,0.0245,0.0263,0.0317,0.0357,0.0402,0.0489,0.0518,0.0611,0.0707,0.0737,0.0833,0.0803,0.0872,0.0836,0.08,0.081,0.0803,0.0816,0.094,0.0968,0.083,0.083,0.083,0,0.0167,0.0181,0.0216,0.0239,0.0258,0.029,0.0326,0.0365,0.0415,0.0535,0.0589,0.0699,0.0788,0.0887,0.088,0.0889,0.0897,0.0863,0.0826,0.0815,0.0843,0.0854,0.0869,0.0865,0.0865,0.0866,0.0866,0,0.0192,0.0199,0.0225,0.0268,0.0302,0.0347,0.0395,0.0434,0.05,0.0576,0.0698,0.0784,0.088,0.0939,0.0928,0.0911,0.0907,0.0862,0.0903,0.092,0.0895,0.0925,0.0774,0.0867,0.0866,0.0866,0.0866,0.0866,0.0213,0.0231,0.0265,0.03,0.0345,0.0402,0.0435,0.0503,0.0581,0.07,0.0765,0.0891,0.0962,0.0978,0.0968,0.0928,0.093,0.0904,0.0929,0.0945,0.096,0.0768,0.0847,0.0847,0.0846,0.0846,0.0846,0,0.0244,0.0262,0.0302,0.0345,0.0393,0.0411,0.0485,0.053,0.0618,0.0744,0.0845,0.0949,0.1022,0.1041,0.1004,0.1,0.1008,0.0998,0.1044,0.1062,0.0949,0.0936,0.0976,0.0976,0.0976,0.0976,0.0976,0.0976,0.0264,0.0298,0.0308,0.0375,0.0408,0.0462,0.0499,0.0582,0.067,0.0808,0.0886,0.0952,0.0969,0.108,0.1098,0.1091,0.1151,0.1138,0.1165,0.1099,0.1093,0.1087,0.108,0.115,0.115,0.1282,0.1284,0.1285]}],[{"header":{"parameterUnit":"m.s-1","parameterCategory":2,"la1":30.2991,"la2":30.254,"lo1":-89.0895,"lo2":-89.0444,"dy":0.0017,"dx":0.0017,"nx":28,"ny":28,"refTime":"2025-06-14T09:00:00:Z","depth":"2","parameterNumber":2,"parameterNumberName":"U-component_of_CURRENTS"},"data":[0,0,0,0,0,0,0,0,0,0,0,0,0,0,0,0,0,0,0,0,0,0,0,0,0,0,0,0,0,0,0,0,0,0,0,0,0,0,0,0,0,0,0,0,0,0,0,0,0,0,0,0,0,0,0,0,0,0,0.0964,0.0965,0,0.0997,0.0997,0.0998,0.1007,0.1007,0.1007,0.1006,0.0978,0.0977,0.0977,0,0,0,0,0,0,0,0,0,0,0,0,0,0.1005,0.1003,0.0964,0.0965,0.0965,0.0997,0.0997,0.0998,0.1007,0.1007,0.1007,0.1006,0.0978,0.0977,0.0977,0,0,0,0,0,0,0,0,0,0,0,0,0,0.1006,0.1003,0.0964,0.0974,0.0975,0.0997,0.0997,0.0998,0.1007,0.1007,0.1007,0.1006,0.0978,0.0977,0.0976,0.0974,0,0,0.0974,0.0973,0,0,0,0,0,0,0,0,0.1006,0.1005,0.0972,0.0973,0.0975,0.0998,0.1001,0.0987,0.1007,0.0994,0.1006,0.1006,0.0979,0.0978,0.0985,0.0973,0.0972,0.0973,0.0973,0.0972,0.0972,0,0,0,0,0,0,0,0.1006,0.1004,0.0977,0.0973,0.0974,0.1009,0.1008,0.0999,0.0986,0.0995,0.0996,0.1001,0.098,0.0986,0.0984,0.0971,0.0973,0.0973,0.0972,0.0972,0.0982,0.0983,0,0,0,0,0,0,0.0998,0.1003,0.0976,0.0978,0.0991,0.1008,0.1008,0.099,0.0987,0.0987,0.1001,0.1001,0.0988,0.0985,0.0983,0.1005,0.0972,0.0972,0.0971,0.0981,0.0982,0.0983,0,0,0,0,0,0,0.0998,0.0994,0.0974,0.0993,0.0993,0.1007,0.0989,0.0991,0.1004,0.0993,0.0991,0.1012,0.0988,0.0985,0.0985,0.1002,0.0971,0.097,0.098,0.0982,0.0983,0.1031,0,0,0,0,0,0,0.0999,0.0993,0.0995,0.0992,0.0992,0.0976,0.0989,0.0992,0.1007,0.1008,0.1001,0.0998,0.0987,0.0987,0.0984,0.1,0.0969,0.0979,0.0981,0.0982,0.1029,0.1034,0.1039,0,0,0,0,0,0.1,0.0997,0.0994,0.0992,0.0986,0.0976,0.0979,0.099,0.1008,0.1003,0.1014,0.0999,0.0995,0.0987,0.0983,0.1,0.0978,0.098,0.0982,0.1026,0.1033,0.1039,0,0,0,0,0,0,0.1006,0.0998,0.0995,0.0986,0.0977,0.0978,0.0989,0.0996,0.1004,0.1015,0.1006,0.1004,0.1017,0.0999,0.099,0.1008,0.0986,0.0987,0.102,0.1026,0.1031,0.1046,0.0969,0,0,0,0,0,0.1009,0.1012,0.0994,0.0989,0.0985,0.099,0.0997,0.1,0.1002,0.1007,0.1011,0.1016,0.1023,0.1016,0.1019,0.1019,0.1034,0.1028,0.1034,0.1038,0.1049,0.111,0.1123,0.099,0.099,0.099,0,0,0.1013,0.1009,0.1012,0.0994,0.0993,0.0985,0.0993,0.0999,0.0997,0.1002,0.1017,0.1038,0.103,0.1042,0.1045,0.1026,0.108,0.104,0.1044,0.1053,0.1114,0.1127,0.1139,0.0991,0.0991,0.099,0,0,0.1016,0.1011,0.1012,0.1009,0.1008,0.0999,0.0999,0.1005,0.101,0.1024,0.104,0.1072,0.1069,0.1077,0.1077,0.1108,0.1114,0.1109,0.1135,0.1195,0.1207,0.1218,0.1239,0.1251,0.11,0.11,0.11,0,0.1027,0.1006,0.101,0.101,0.1009,0.1002,0.0993,0.0994,0.1006,0.1041,0.103,0.1103,0.1087,0.1123,0.1132,0.112,0.115,0.1112,0.1204,0.1215,0.1225,0.1244,0.1257,0.1103,0.1103,0.1102,0.1102,0,0.1016,0.1013,0.1013,0.1002,0.1005,0.0994,0.0988,0.101,0.1028,0.1059,0.1121,0.1121,0.1166,0.1167,0.1153,0.122,0.1216,0.1214,0.1191,0.1242,0.1258,0.1271,0.1106,0.1106,0.1105,0.1104,0,0,0.1017,0.1002,0.1008,0.1013,0.0999,0.1004,0.1009,0.1029,0.1073,0.1107,0.1162,0.1193,0.1237,0.1239,0.1236,0.1279,0.1357,0.1278,0.1279,0.1303,0.1481,0.1292,0.1287,0.1388,0.1391,0.1393,0.1458,0,0.1001,0.0987,0.0987,0.0993,0.0984,0.1003,0.1017,0.1062,0.109,0.1145,0.119,0.1246,0.1243,0.1275,0.1317,0.1356,0.1397,0.1339,0.1424,0.1426,0.1257,0.1297,0.1155,0.1185,0.147,0.1472,0.1474,0,0.099,0.0985,0.0962,0.1003,0.1006,0.1022,0.1078,0.1092,0.1172,0.1205,0.128,0.1318,0.1382,0.1361,0.147,0.1442,0.1467,0.1492,0.1495,0.1312,0.126,0.1183,0.1197,0.1495,0.1493,0.1492,0.149,0,0.0979,0.0987,0.0962,0.0969,0.0996,0.1035,0.1069,0.1146,0.1173,0.1257,0.13,0.139,0.1429,0.1499,0.1518,0.1527,0.1613,0.1628,0.1484,0.147,0.1357,0.1327,0.1714,0.1714,0.1714,0.1714,0.1713,0,0.0954,0.0971,0.0972,0.0969,0.1016,0.1055,0.111,0.1169,0.1227,0.1281,0.134,0.1375,0.1477,0.152,0.1544,0.1522,0.1637,0.1494,0.148,0.1363,0.1333,0.161,0.1597,0.1716,0.1715,0.1715,0.1715,0,0.0967,0.0938,0.0951,0.0981,0.1002,0.1059,0.1126,0.1177,0.1235,0.1287,0.132,0.1403,0.1459,0.1496,0.1588,0.1535,0.1544,0.1504,0.1323,0.1283,0.1365,0.1354,0.1392,0.1386,0.1381,0.1377,0.1373,0,0.095,0.0938,0.0964,0.0976,0.0999,0.1064,0.1108,0.1176,0.1209,0.1294,0.1318,0.139,0.1389,0.1393,0.1338,0.1311,0.142,0.1153,0.1128,0.1352,0.1336,0.1333,0.1329,0.1016,0.101,0.1005,0.1001,0,0.0933,0.0945,0.0952,0.0984,0.1025,0.1065,0.1131,0.1135,0.1208,0.122,0.1244,0.1252,0.1236,0.1117,0.1041,0.1019,0.1139,0.1042,0.1374,0.1076,0.099,0.0976,0.0987,0.0955,0.096,0.0963,0.0966,0.0967,0.0934,0.0949,0.0948,0.0986,0.1037,0.1068,0.1059,0.109,0.1088,0.1062,0.1112,0.1024,0.1006,0.0782,0.0734,0.0691,0.081,0.0781,0.0802,0.0827,0.0728,0.0633,0.0513,0.0515,0.0517,0.0518,0.0519,0,0.0909,0.093,0.0949,0.0981,0.1011,0.1057,0.1068,0.1008,0.0953,0.0904,0.0849,0.0644,0.0521,0.0524,0.0371,0.0331,0.0394,0.0323,0.0421,0.0463,0.0501,0.0392,0.0085,0.0084,0.0084,0.0083,0,0,0.0908,0.0887,0.0886,0.0908,0.0955,0.096,0.0936,0.0851,0.0773,0.0597,0.0478,0.0439,0.0444,0.0236,0.0206,0.0131,0.0307,0.0106,0.0446,0.0601,0.0639,0.0742,0.0614,0,0,0,0,0]},{"header":{"parameterUnit":"m.s-1","parameterCategory":2,"la1":30.2991,"la2":30.254,"lo1":-89.0895,"lo2":-89.0444,"dy":0.0017,"dx":0.0017,"nx":28,"ny":28,"refTime":"2025-06-14T09:00:00:Z","depth":"2","parameterNumber":3,"parameterNumberName":"V-component_of_CURRENTS"},"data":[0,0,0,0,0,0,0,0,0,0,0,0,0,0,0,0,0,0,0,0,0,0,0,0,0,0,0,0,0,0,0,0,0,0,0,0,0,0,0,0,0,0,0,0,0,0,0,0,0,0,0,0,0,0,0,0,0,0,-0.0013,-0.0013,0,0.0019,0.0019,0.0019,0.0037,0.0037,0.0037,0.0037,0.0068,0.0069,0.007,0,0,0,0,0,0,0,0,0,0,0,0,0,-0.0055,-0.0055,-0.0013,-0.0012,-0.0012,0.0018,0.0019,0.0019,0.0037,0.0037,0.0037,0.0037,0.0068,0.0069,0.007,0,0,0,0,0,0,0,0,0,0,0,0,0,-0.0032,-0.0055,-0.0013,0.0,0.0002,0.0018,0.0019,0.0019,0.0037,0.0037,0.0037,0.0037,0.0067,0.0069,0.007,0.0076,0,0,0.0074,0.0074,0,0,0,0,0,0,0,0,-0.0033,-0.003,-0.0002,-0.0001,0.0001,0.0024,0.0015,0.0038,0.0037,0.0023,0.0037,0.0037,0.0053,0.0055,0.0061,0.0078,0.0079,0.0074,0.0074,0.0075,0.0075,0,0,0,0,0,0,0,-0.0035,-0.0031,-0.0,-0.0002,0.0,0.0005,0.0009,0.002,0.0038,0.0024,0.0026,0.0029,0.0054,0.006,0.0062,0.008,0.0074,0.0075,0.0075,0.0076,0.0098,0.0097,0,0,0,0,0,0,-0.0039,-0.0033,-0.0001,0.0001,-0.0016,0.0006,0.001,0.0016,0.0038,0.0041,0.0029,0.003,0.0058,0.0061,0.0063,0.0073,0.0075,0.0076,0.0077,0.0098,0.0097,0.0097,0,0,0,0,0,0,-0.004,-0.0036,-0.0003,-0.0016,-0.0011,0.0007,0.0014,0.0017,0.0024,0.0041,0.0044,0.0033,0.0058,0.0062,0.0074,0.0074,0.0077,0.0078,0.0098,0.0098,0.0097,0.0091,0,0,0,0,0,0,-0.0041,-0.0037,-0.0035,-0.0016,-0.0011,0.0007,0.0014,0.0017,0.0026,0.0027,0.0045,0.0048,0.0059,0.0072,0.0075,0.0076,0.0079,0.0098,0.0098,0.0097,0.0092,0.0091,0.009,0,0,0,0,0,-0.0043,-0.0038,-0.0035,-0.0032,-0.0009,0.0007,0.0011,0.0023,0.0026,0.0029,0.0041,0.0048,0.0072,0.0073,0.0076,0.0078,0.0098,0.0098,0.0097,0.0092,0.0091,0.009,0,0,0,0,0,0,-0.0054,-0.0035,-0.0032,-0.0021,-0.001,0.001,0.0017,0.0022,0.0034,0.0037,0.0049,0.0053,0.0063,0.007,0.007,0.0082,0.0085,0.0085,0.0079,0.0078,0.0078,0.0083,0.008,0,0,0,0,0,-0.0057,-0.0048,-0.0032,-0.0024,-0.0017,-0.0002,0.0005,0.0014,0.0028,0.0033,0.0045,0.0056,0.0064,0.0071,0.0081,0.0089,0.0114,0.0091,0.009,0.0089,0.0095,0.0148,0.0153,0.0096,0.0096,0.0096,0,0,-0.0059,-0.0047,-0.0043,-0.0026,-0.0014,-0.0002,0.0003,0.0017,0.0023,0.0035,0.0047,0.0055,0.0065,0.0075,0.008,0.0082,0.0114,0.0089,0.0088,0.0095,0.0148,0.0154,0.0159,0.0096,0.0096,0.0096,0,0,-0.0055,-0.0048,-0.0038,-0.0028,-0.0011,-0.0002,0.0,0.0019,0.0024,0.0034,0.0043,0.0055,0.0065,0.0078,0.0084,0.0085,0.0108,0.008,0.0083,0.0133,0.0139,0.0144,0.0166,0.0173,0.008,0.008,0.008,0,-0.006,-0.0043,-0.0034,-0.002,-0.0011,-0.0003,0.0009,0.0015,0.0033,0.0032,0.0037,0.0063,0.007,0.0088,0.0083,0.0086,0.0108,0.0086,0.0134,0.014,0.0146,0.0167,0.0175,0.008,0.008,0.008,0.008,0,-0.0044,-0.0033,-0.0025,-0.0007,0.0001,0.0013,0.0022,0.0025,0.0028,0.0032,0.0048,0.0069,0.0085,0.0084,0.0082,0.0116,0.0116,0.0129,0.014,0.0152,0.0172,0.0181,0.0079,0.0079,0.0079,0.008,0,0,-0.0047,-0.0019,-0.0017,-0.001,0.0009,0.0016,0.0021,0.0026,0.0034,0.0044,0.0068,0.0071,0.0083,0.0091,0.0101,0.0138,0.0184,0.0145,0.0147,0.0171,0.028,0.0259,0.0267,0.021,0.0212,0.0214,0.0273,0,-0.0037,-0.0012,-0.0002,0.0013,0.0025,0.0028,0.0033,0.0035,0.0043,0.0066,0.0081,0.0106,0.0086,0.0106,0.0136,0.0193,0.021,0.0166,0.0261,0.0263,0.0249,0.0278,0.0274,0.0326,0.0282,0.0283,0.0284,0,-0.0026,-0.001,0.001,0.0022,0.0028,0.0033,0.0042,0.005,0.0069,0.0079,0.0102,0.0124,0.0173,0.0163,0.0249,0.0225,0.0238,0.0271,0.0274,0.0267,0.026,0.031,0.0344,0.0299,0.0298,0.0297,0.0296,0,-0.0032,-0.0008,0.0007,0.0014,0.0033,0.0032,0.0035,0.0047,0.0067,0.0097,0.0135,0.0175,0.0235,0.027,0.0313,0.0293,0.0416,0.0402,0.0382,0.038,0.0402,0.0399,0.044,0.044,0.044,0.044,0.0439,0,-0.0027,-0.002,0.0003,0.0012,0.0023,0.003,0.0052,0.0051,0.0094,0.0145,0.0147,0.0228,0.0271,0.0339,0.0347,0.0403,0.044,0.0391,0.0404,0.0395,0.0391,0.0388,0.0381,0.0442,0.0441,0.0441,0.044,0,-0.0041,-0.0022,-0.0008,0.0014,0.0023,0.0024,0.0065,0.0093,0.0119,0.0201,0.022,0.0298,0.0391,0.0409,0.0493,0.0465,0.0507,0.0496,0.0463,0.047,0.042,0.0412,0.0497,0.0497,0.0497,0.0497,0.0497,0,-0.0039,-0.0029,-0.0005,0.0019,0.0028,0.0048,0.0078,0.0098,0.0149,0.0263,0.0322,0.0415,0.0508,0.0595,0.0569,0.0568,0.0539,0.0522,0.0474,0.0427,0.0431,0.0423,0.0415,0.0495,0.0495,0.0495,0.0495,0,-0.0028,-0.0026,-0.001,0.0034,0.0064,0.0105,0.0152,0.0201,0.0262,0.0346,0.0494,0.0577,0.0639,0.0667,0.0615,0.0599,0.0524,0.0519,0.0528,0.0468,0.0427,0.043,0.0423,0.0495,0.0495,0.0495,0.0495,0.0495,-0.0017,-0.0008,0.0024,0.006,0.0104,0.0174,0.0215,0.0301,0.0401,0.0534,0.061,0.0702,0.0696,0.0645,0.0619,0.0539,0.0546,0.0495,0.0495,0.0495,0.0472,0.0432,0.0495,0.0495,0.0495,0.0495,0.0495,0,0.0014,0.003,0.0066,0.0115,0.0171,0.0183,0.0282,0.0347,0.0483,0.0583,0.07,0.0682,0.0698,0.0651,0.0547,0.0504,0.049,0.0468,0.0465,0.0466,0.0467,0.0441,0.0457,0.0457,0.0456,0.0456,0,0,0.0034,0.0074,0.0087,0.0179,0.0215,0.0286,0.0342,0.0449,0.0523,0.0643,0.0668,0.0733,0.0691,0.0599,0.0561,0.0504,0.0483,0.0481,0.0519,0.0523,0.0523,0.0494,0.0457,0,0,0,0,0]}],[{"header":{"parameterUnit":"m.s-1","parameterCategory":2,"la1":30.2991,"la2":30.254,"lo1":-89.0895,"lo2":-89.0444,"dy":0.0017,"dx":0.0017,"nx":28,"ny":28,"refTime":"2025-06-14T09:00:00:Z","depth":"4","parameterNumber":2,"parameterNumberName":"U-component_of_CURRENTS"},"data":[0,0,0,0,0,0,0,0,0,0,0,0,0,0,0,0,0,0,0,0,0,0,0,0,0,0,0,0,0,0,0,0,0,0,0,0,0,0,0,0,0,0,0,0,0,0,0,0,0,0,0,0,0,0,0,0,0,0,0.0232,0.0232,0,0.0229,0.0229,0.0229,0.0264,0.0264,0.0265,0.0266,0.0296,0.0296,0.0296,0,0,0,0,0,0,0,0,0,0,0,0,0,0.0264,0.0263,0.0232,0.0232,0.0231,0.0229,0.0229,0.0229,0.0264,0.0264,0.0265,0.0266,0.0296,0.0296,0.0296,0,0,0,0,0,0,0,0,0,0,0,0,0,0.0257,0.0263,0.0232,0.0246,0.0247,0.0229,0.0229,0.0229,0.0263,0.0264,0.0266,0.0267,0.0296,0.0296,0.0296,0.0276,0,0,0.0297,0.0297,0,0,0,0,0,0,0,0,0.0257,0.0256,0.0245,0.0245,0.0246,0.0246,0.0251,0.0246,0.0263,0.026,0.0266,0.0267,0.028,0.0281,0.0281,0.0277,0.0279,0.0297,0.0297,0.0297,0.0297,0,0,0,0,0,0,0,0.0257,0.0256,0.0233,0.0244,0.0245,0.0251,0.0252,0.025,0.0266,0.026,0.0262,0.0258,0.0281,0.0281,0.0282,0.0279,0.0297,0.0297,0.0297,0.0297,0.0332,0.0333,0,0,0,0,0,0,0.0251,0.0256,0.0233,0.0233,0.0252,0.025,0.025,0.0247,0.0266,0.0269,0.0257,0.0259,0.028,0.0282,0.0284,0.0298,0.0297,0.0297,0.0297,0.0332,0.0333,0.0333,0,0,0,0,0,0,0.0252,0.025,0.0233,0.0243,0.0241,0.0248,0.0244,0.0246,0.0262,0.0262,0.0267,0.0272,0.0281,0.0283,0.0295,0.0298,0.0297,0.0298,0.0331,0.0332,0.0333,0.0303,0,0,0,0,0,0,0.0253,0.025,0.0247,0.0242,0.024,0.0225,0.0242,0.0245,0.0255,0.0259,0.0276,0.0279,0.0282,0.0295,0.0295,0.0299,0.0298,0.033,0.0331,0.0333,0.0303,0.0303,0.0303,0,0,0,0,0,0.0254,0.0246,0.0247,0.0244,0.0235,0.0224,0.0224,0.0235,0.0255,0.0255,0.0274,0.0279,0.0306,0.0295,0.0295,0.0299,0.0329,0.0331,0.0333,0.0303,0.0303,0.0303,0,0,0,0,0,0,0.0258,0.0248,0.025,0.0239,0.0233,0.0229,0.0235,0.024,0.0255,0.027,0.0278,0.0281,0.0289,0.0305,0.0293,0.0318,0.0323,0.0325,0.03,0.03,0.03,0.0317,0.0298,0,0,0,0,0,0.0256,0.025,0.0239,0.0232,0.0235,0.0238,0.0238,0.0244,0.0252,0.0261,0.0275,0.0295,0.0293,0.0307,0.0308,0.0321,0.0348,0.033,0.033,0.033,0.0347,0.0402,0.0408,0.0339,0.0339,0.0339,0,0,0.0257,0.0248,0.0247,0.0232,0.0239,0.0226,0.0243,0.0248,0.0237,0.026,0.0272,0.0286,0.0294,0.0301,0.031,0.032,0.0358,0.0332,0.0331,0.0349,0.0404,0.0411,0.0417,0.0341,0.034,0.034,0,0,0.025,0.0253,0.0246,0.024,0.0239,0.0232,0.0235,0.0243,0.0252,0.0258,0.0268,0.0299,0.0304,0.0317,0.032,0.0329,0.0346,0.0326,0.0349,0.0401,0.0407,0.0413,0.0426,0.0433,0.0339,0.0339,0.0339,0,0.0252,0.0234,0.0242,0.0232,0.0218,0.0234,0.0216,0.0221,0.0231,0.0238,0.0265,0.0298,0.0316,0.0315,0.033,0.0329,0.0348,0.0339,0.0401,0.0407,0.0414,0.0426,0.0434,0.0338,0.0338,0.0338,0.0338,0,0.0233,0.0223,0.0224,0.0209,0.0195,0.0188,0.0183,0.0197,0.0218,0.0225,0.0249,0.0287,0.0309,0.0323,0.0333,0.0375,0.0367,0.038,0.0396,0.0419,0.0429,0.0439,0.0336,0.0337,0.0337,0.0337,0,0,0.0231,0.021,0.0216,0.0193,0.018,0.0163,0.016,0.0148,0.0155,0.0198,0.0212,0.0253,0.029,0.03,0.032,0.0394,0.0454,0.0416,0.042,0.0421,0.0543,0.044,0.044,0.0476,0.0478,0.048,0.052,0,0.0214,0.0178,0.0172,0.0134,0.0109,0.0117,0.0099,0.0098,0.0126,0.0152,0.0211,0.0241,0.0267,0.0301,0.0362,0.045,0.0483,0.0441,0.053,0.0532,0.0432,0.0449,0.0487,0.0527,0.0529,0.0531,0.0532,0,0.0195,0.0165,0.012,0.0075,0.0069,0.0055,0.004,0.003,0.0069,0.0104,0.0156,0.0197,0.0293,0.0324,0.0463,0.0435,0.0477,0.0545,0.0548,0.0476,0.0447,0.051,0.0549,0.0548,0.0547,0.0545,0.0544,0,0.0162,0.013,0.0083,0.007,0.0025,0.0022,0.0014,0.0029,0.0034,0.01,0.0143,0.0214,0.0282,0.0381,0.0496,0.0496,0.0647,0.0655,0.0578,0.057,0.0664,0.0658,0.072,0.072,0.072,0.072,0.072,0,0.0125,0.009,0.0075,0.0047,0.0007,-0.0005,-0.001,-0.0001,0.0035,0.0054,0.0124,0.0165,0.0312,0.0396,0.0491,0.0559,0.0627,0.0586,0.0583,0.0645,0.0637,0.0668,0.0662,0.0721,0.0721,0.0721,0.072,0,0.0084,0.0069,0.0004,-0.0024,-0.0013,-0.0046,-0.0016,-0.0016,0.0033,0.0073,0.0105,0.0163,0.0279,0.0382,0.0541,0.0538,0.0637,0.0617,0.0651,0.0648,0.0521,0.0513,0.0561,0.0558,0.0555,0.0553,0.0551,0,0.0053,0.0028,-0.0022,-0.0048,-0.0054,-0.0057,-0.005,-0.0016,-0.0002,0.0071,0.0079,0.0173,0.0222,0.0357,0.0455,0.0573,0.0563,0.0574,0.0575,0.0517,0.051,0.0506,0.0501,0.0547,0.0546,0.0546,0.0545,0,0.0008,-0.0006,-0.0045,-0.0078,-0.0089,-0.0112,-0.0084,-0.0072,-0.0026,0.0028,0.0076,0.0136,0.0212,0.0312,0.0372,0.0462,0.0575,0.0547,0.0553,0.0554,0.0501,0.0496,0.0494,0.0536,0.0537,0.0538,0.0539,0,0.0002,-0.004,-0.006,-0.01,-0.0121,-0.0152,-0.0145,-0.0105,-0.0081,0.001,0.0019,0.0131,0.0195,0.0249,0.0332,0.0389,0.0398,0.0397,0.0412,0.0422,0.036,0.0271,0.0238,0,0,0,0,0,0.0005,-0.0025,-0.0065,-0.0125,-0.015,-0.0159,-0.0157,-0.0145,-0.0076,-0.0053,-0.0011,0.0069,0.0158,0.0193,0.0235,0.0265,0.0393,0.0306,0.0397,0.0485,0.0496,0.0436,0,0,0,0,0,0,0.0005,-0.0023,-0.0061,-0.0107,-0.0142,-0.017,-0.0179,-0.0159,-0.0139,-0.0065,-0.0011,0.0046,0.0141,0.016,0.0236,0.025,0.0298,0.0368,0.0367,0.0479,0.0489,0.0497,0.0439,0,0,0,0,0]},{"header":{"parameterUnit":"m.s-1","parameterCategory":2,"la1":30.2991,"la2":30.254,"lo1":-89.0895,"lo2":-89.0444,"dy":0.0017,"dx":0.0017,"nx":28,"ny":28,"refTime":"2025-06-14T09:00:00:Z","depth":"4","parameterNumber":3,"parameterNumberName":"V-component_of_CURRENTS"},"data":[0,0,0,0,0,0,0,0,0,0,0,0,0,0,0,0,0,0,0,0,0,0,0,0,0,0,0,0,0,0,0,0,0,0,0,0,0,0,0,0,0,0,0,0,0,0,0,0,0,0,0,0,0,0,0,0,0,0,0.0027,0.0027,0,0.004,0.004,0.004,0.0037,0.0037,0.0037,0.0037,0.0065,0.0066,0.0066,0,0,0,0,0,0,0,0,0,0,0,0,0,-0.0013,-0.0012,0.0027,0.0027,0.0027,0.004,0.004,0.004,0.0037,0.0037,0.0037,0.0037,0.0065,0.0065,0.0066,0,0,0,0,0,0,0,0,0,0,0,0,0,0.0001,-0.0012,0.0026,0.0029,0.0029,0.004,0.004,0.004,0.0037,0.0037,0.0037,0.0037,0.0064,0.0065,0.0067,0.0076,0,0,0.007,0.0071,0,0,0,0,0,0,0,0,0.0,0.0002,0.0028,0.0029,0.0029,0.0038,0.0036,0.0053,0.0037,0.0032,0.0037,0.0037,0.0059,0.006,0.006,0.0077,0.0079,0.007,0.0071,0.0072,0.0072,0,0,0,0,0,0,0,-0.0001,0.0002,0.003,0.0029,0.0029,0.0025,0.0027,0.0039,0.0045,0.0033,0.0033,0.0037,0.0059,0.0059,0.0061,0.0079,0.007,0.0071,0.0072,0.0073,0.0108,0.0108,0,0,0,0,0,0,0.0002,0.0001,0.003,0.003,0.0016,0.0026,0.0028,0.0034,0.0044,0.0046,0.0037,0.0037,0.0057,0.0059,0.0062,0.0085,0.0072,0.0073,0.0073,0.0108,0.0108,0.0108,0,0,0,0,0,0,0.0001,0.0005,0.0029,0.0017,0.002,0.0027,0.0034,0.0034,0.0035,0.0048,0.005,0.0038,0.0057,0.006,0.0073,0.0086,0.0073,0.0074,0.0108,0.0108,0.0108,0.0125,0,0,0,0,0,0,0.0,0.0004,0.0009,0.0018,0.0021,0.0038,0.0034,0.0035,0.0039,0.0039,0.0049,0.0052,0.0057,0.0071,0.0074,0.0087,0.0075,0.0107,0.0108,0.0108,0.0124,0.0126,0.0127,0,0,0,0,0,-0.0001,0.0008,0.0009,0.0013,0.0028,0.0038,0.0039,0.0042,0.0039,0.0042,0.0047,0.0051,0.0076,0.0072,0.0076,0.009,0.0107,0.0108,0.0108,0.0123,0.0125,0.0127,0,0,0,0,0,0,-0.0004,0.001,0.001,0.0024,0.0031,0.0038,0.0043,0.0043,0.0048,0.0048,0.0055,0.0058,0.0076,0.0077,0.0073,0.01,0.0092,0.0093,0.0102,0.0104,0.0106,0.0119,0.0076,0,0,0,0,0,-0.0003,0.0006,0.0017,0.0027,0.0032,0.0036,0.004,0.0042,0.0049,0.005,0.0058,0.0067,0.008,0.0087,0.0098,0.0112,0.0112,0.0122,0.0124,0.0125,0.0138,0.0138,0.0141,0.011,0.011,0.011,0,0,-0.0001,0.0008,0.0013,0.0027,0.0032,0.0048,0.0038,0.0046,0.0063,0.0054,0.0076,0.0075,0.0085,0.0103,0.011,0.0106,0.0132,0.0126,0.0127,0.0139,0.0139,0.0142,0.0145,0.011,0.011,0.011,0,0,0.0009,0.0014,0.0026,0.0035,0.0046,0.0053,0.0056,0.0064,0.007,0.0084,0.0086,0.0093,0.0108,0.0122,0.013,0.0146,0.0141,0.0144,0.0164,0.0164,0.0167,0.0169,0.0167,0.017,0.0144,0.0144,0.0144,0,0.001,0.0031,0.003,0.0047,0.0065,0.0058,0.0082,0.0087,0.0098,0.0114,0.0094,0.0119,0.0122,0.0155,0.0156,0.0153,0.0146,0.0157,0.0166,0.0169,0.0171,0.0169,0.0171,0.0145,0.0144,0.0144,0.0144,0,0.0033,0.005,0.0058,0.0082,0.0099,0.0115,0.013,0.014,0.0141,0.015,0.0171,0.0162,0.0182,0.0175,0.017,0.0192,0.018,0.0169,0.0163,0.0175,0.0172,0.0174,0.0146,0.0145,0.0145,0.0145,0,0,0.0036,0.0069,0.0072,0.0097,0.0122,0.0142,0.017,0.0204,0.0227,0.0219,0.0245,0.0252,0.0241,0.0249,0.0236,0.0225,0.0227,0.0201,0.02,0.0201,0.0222,0.0214,0.0215,0.0211,0.0211,0.0212,0.0211,0,0.0055,0.0095,0.0112,0.0161,0.0187,0.0204,0.0237,0.0264,0.0272,0.029,0.0279,0.0295,0.0272,0.027,0.0261,0.0237,0.0234,0.0228,0.0208,0.0208,0.0201,0.0218,0.0214,0.0212,0.0213,0.0213,0.0213,0,0.0075,0.0102,0.0152,0.0211,0.0226,0.0255,0.0312,0.0344,0.0366,0.0368,0.0375,0.0361,0.0362,0.0321,0.0305,0.0299,0.0271,0.024,0.0239,0.0231,0.0204,0.0198,0.0217,0.0217,0.0216,0.0216,0.0216,0,0.0081,0.0134,0.018,0.02,0.0259,0.0291,0.0327,0.0366,0.0399,0.0416,0.042,0.0422,0.0408,0.0381,0.033,0.0317,0.0289,0.0269,0.024,0.0238,0.0238,0.0235,0.0261,0.0261,0.0261,0.0261,0.0261,0,0.0103,0.014,0.0184,0.021,0.0272,0.0312,0.0375,0.0402,0.0436,0.047,0.0464,0.0461,0.0416,0.0392,0.035,0.0306,0.0317,0.0254,0.0242,0.0243,0.0241,0.0239,0.0236,0.026,0.026,0.026,0.0261,0,0.011,0.0138,0.019,0.0251,0.0277,0.0322,0.0401,0.0439,0.0468,0.0502,0.0506,0.0492,0.0463,0.0423,0.0368,0.0332,0.029,0.0271,0.0282,0.0268,0.0234,0.0232,0.0248,0.0248,0.0247,0.0247,0.0247,0,0.0121,0.0143,0.021,0.0244,0.0275,0.0343,0.039,0.0446,0.0474,0.0514,0.0515,0.0504,0.0486,0.0409,0.0366,0.0311,0.029,0.0272,0.025,0.0248,0.0235,0.0233,0.0232,0.0247,0.0247,0.0247,0.0247,0,0.0133,0.0149,0.0188,0.0245,0.0297,0.0369,0.0424,0.0442,0.0499,0.0527,0.0515,0.049,0.0454,0.0397,0.036,0.0313,0.0288,0.027,0.027,0.0249,0.0247,0.0234,0.0232,0.0246,0.0246,0.0246,0.0246,0,0.0133,0.0152,0.0186,0.0246,0.0312,0.0367,0.0404,0.0434,0.0471,0.0503,0.0493,0.0473,0.0461,0.0399,0.0361,0.0324,0.0305,0.0275,0.0274,0.0274,0.0278,0.0279,0.0288,0,0,0,0,0,0.0133,0.0148,0.019,0.0245,0.0309,0.0352,0.0418,0.0446,0.0485,0.0476,0.0487,0.0457,0.0409,0.0384,0.0344,0.0352,0.0297,0.0303,0.0262,0.0243,0.0244,0.0243,0,0,0,0,0,0,0.0127,0.0156,0.0175,0.0233,0.0276,0.0344,0.0391,0.0419,0.0408,0.0439,0.0409,0.0429,0.0377,0.0426,0.0335,0.0328,0.0291,0.0293,0.0291,0.0243,0.0244,0.0244,0.0243,0,0,0,0,0]}]]